Beaver Island, MI

3:54 AM EST on January 23, 2018 (GMT -0500)
Beaver Island

Weather History for KSJX - March, 2014

Change the Weather History Date:

Tuesday, March 25, 2014

  Actual Average Record
Temperature  
Mean Temperature 10 °F -  
Max Temperature 17 °F 40 °F 60 °F (1986)
Min Temperature 0 °F 23 °F -2 °F (1965)
Degree Days  
Heating Degree Days 56    
Moisture  
Dew Point 3 °F    
Average Humidity 67    
Maximum Humidity 88    
Minimum Humidity 45    
Precipitation  
Precipitation 0.00 in - - ()
Sea Level Pressure  
Sea Level Pressure 30.00 in    
Wind  
Wind Speed 4 mph (NW)    
Max Wind Speed 16 mph    
Max Gust Speed 26 mph    
Visibility 8 miles    
Events Snow    
Averages and records for this station are not official NWS values.
T = Trace of Precipitation, MM = Missing Value Source: NWS Daily Summary

Daily Weather History Graph

Daily Weather History Graph

Search for Another Location

Airport or City:

Trip Planner

Search our weather history database for the weather conditions in past years. The results will help you decide how hot, cold, wet, or windy it might be!

Date:

Astronomy

Mar. 25, 2014 Rise Set
Actual Time 7:35 AM EDT 8:01 PM EDT
Civil Twilight 7:06 AM EDT 8:31 PM EDT
Nautical Twilight 6:30 AM EDT 9:06 PM EDT
Astronomical Twilight 5:54 AM EDT 9:42 PM EDT
Moon 4:12 AM EDT (3/25) 2:16 PM EDT (3/25)
Length of Visible Light 13h 25m
Length of Day
12h 25m
Waning Crescent, 32% of the Moon is Illuminated
Mar 25
Waning Crescent
Mar 30
New
Apr 7
First Quarter
Apr 15
Full
Apr 22
Last Quarter

Hourly Weather History & Observations

Time (EDT) Temp. Windchill Dew Point Humidity Pressure Visibility Wind Dir Wind Speed Gust Speed Precip Events Conditions
12:16 AM 14.9 °F 9.2 °F 2.8 °F 59% 29.96 in 10.0 mi NE 3.5 mph - N/A   Scattered Clouds
12:36 AM 14.0 °F - 2.3 °F 60% 29.95 in 10.0 mi Calm Calm - N/A   Scattered Clouds
12:56 AM 12.4 °F - 3.0 °F 66% 29.95 in 10.0 mi Calm Calm - N/A   Scattered Clouds
1:16 AM 9.5 °F - 2.3 °F 73% 29.94 in 10.0 mi Calm Calm - N/A   Scattered Clouds
1:36 AM 9.5 °F - 3.2 °F 76% 29.93 in 10.0 mi Calm Calm - N/A   Mostly Cloudy
1:56 AM 10.6 °F - 4.3 °F 76% 29.93 in 10.0 mi Calm Calm - N/A   Overcast
2:16 AM 11.5 °F - 5.4 °F 76% 29.92 in 10.0 mi Calm Calm - N/A   Overcast
2:36 AM 11.7 °F - 5.2 °F 75% 29.91 in 10.0 mi Calm Calm - N/A   Overcast
2:56 AM 10.4 °F - 5.0 °F 79% 29.90 in 10.0 mi Calm Calm - N/A   Scattered Clouds
3:15 AM 8.4 °F - 4.1 °F 83% 29.90 in 10.0 mi Calm Calm - N/A   Scattered Clouds
3:36 AM 7.2 °F - 2.8 °F 82% 29.89 in 10.0 mi Calm Calm - N/A   Mostly Cloudy
3:56 AM 8.6 °F - 4.1 °F 82% 29.88 in 10.0 mi Calm Calm - N/A   Overcast
4:16 AM 8.1 °F - 3.4 °F 81% 29.88 in 10.0 mi Calm Calm - N/A   Scattered Clouds
4:36 AM 4.8 °F - 0.5 °F 82% 29.88 in 10.0 mi Calm Calm - N/A   Clear
4:56 AM 5.7 °F - 2.3 °F 86% 29.88 in 10.0 mi Calm Calm - N/A   Clear
5:16 AM 5.0 °F - 1.0 °F 84% 29.88 in 10.0 mi Calm Calm - N/A   Scattered Clouds
5:36 AM 4.6 °F - 0.7 °F 84% 29.88 in 10.0 mi Calm Calm - N/A   Overcast
5:56 AM 10.8 °F 1.2 °F 7.2 °F 85% 29.89 in 2.5 mi West 5.8 mph - N/A Snow Light Snow
6:16 AM 11.8 °F - 8.2 °F 85% 29.88 in 7.0 mi Calm Calm - N/A   Overcast
6:36 AM 10.8 °F - 7.0 °F 85% 29.88 in 10.0 mi Calm Calm - N/A   Overcast
6:56 AM 11.7 °F - 8.6 °F 88% 29.89 in 2.0 mi Calm Calm - N/A Snow Light Snow
7:16 AM 15.3 °F 9.6 °F 11.8 °F 86% 29.90 in 1.2 mi NW 3.5 mph - N/A Snow Light Snow
7:36 AM 14.7 °F 4.8 °F 11.3 °F 86% 29.90 in 1.5 mi NW 6.9 mph - N/A Snow Light Snow
7:55 AM 13.5 °F 5.8 °F 9.9 °F 86% 29.91 in 1.5 mi NW 4.6 mph - N/A Snow Light Snow
8:16 AM 12.9 °F 2.6 °F 9.3 °F 86% 29.92 in 5.0 mi NW 6.9 mph - N/A   Overcast
8:35 AM 12.7 °F 3.6 °F 8.8 °F 84% 29.93 in 4.0 mi NW 5.8 mph - N/A   Overcast
8:56 AM 12.4 °F 6.3 °F 7.9 °F 82% 29.93 in 10.0 mi WNW 3.5 mph - N/A   Overcast
9:16 AM 12.7 °F 2.4 °F 7.7 °F 80% 29.93 in 10.0 mi NW 6.9 mph - N/A   Overcast
9:35 AM 13.1 °F 4.0 °F 7.3 °F 78% 29.94 in 10.0 mi NW 5.8 mph - N/A   Overcast
9:56 AM 13.3 °F 5.6 °F 6.6 °F 75% 29.95 in 10.0 mi NNW 4.6 mph - N/A   Overcast
10:16 AM 13.8 °F 4.9 °F 5.9 °F 71% 29.95 in 10.0 mi NNW 5.8 mph - N/A   Scattered Clouds
10:36 AM 14.0 °F 2.9 °F 5.9 °F 70% 29.96 in 5.0 mi NW 8.1 mph - N/A Snow Light Snow
10:56 AM 15.4 °F 3.0 °F 6.1 °F 67% 29.97 in 4.0 mi NW 10.4 mph 16.1 mph N/A Snow Light Snow
11:16 AM 16.2 °F 4.7 °F 5.0 °F 62% 29.98 in 5.0 mi NW 9.2 mph 16.1 mph N/A   Haze
11:36 AM 17.1 °F 2.5 °F 5.4 °F 60% 29.98 in 1.5 mi NW 15.0 mph 20.7 mph N/A Snow Light Snow
11:56 AM 16.7 °F 3.8 °F 4.8 °F 60% 29.99 in 1.0 mi NW 11.5 mph 21.9 mph N/A Snow Light Snow
12:16 PM 17.4 °F 3.5 °F 4.1 °F 56% 30.00 in 7.0 mi WNW 13.8 mph 19.6 mph N/A   Clear
12:36 PM 17.2 °F 3.9 °F 1.8 °F 51% 30.00 in 7.0 mi NW 12.7 mph 20.7 mph N/A   Clear
12:56 PM 17.2 °F 5.2 °F 0.5 °F 48% 30.01 in 7.0 mi NW 10.4 mph 20.7 mph N/A   Scattered Clouds
1:16 PM 17.6 °F 4.3 °F 0.3 °F 47% 30.02 in 7.0 mi NW 12.7 mph 21.9 mph N/A   Clear
1:36 PM 17.4 °F 2.9 °F 0.5 °F 48% 30.02 in 7.0 mi NW 15.0 mph 24.2 mph N/A   Clear
1:56 PM 17.1 °F 2.0 °F 1.0 °F 50% 30.03 in 7.0 mi NW 16.1 mph 26.5 mph N/A   Clear
2:16 PM 16.9 °F 2.8 °F 0.3 °F 48% 30.03 in 10.0 mi NW 13.8 mph 23.0 mph N/A   Clear
2:35 PM 16.7 °F 3.8 °F -0.0 °F 48% 30.03 in 10.0 mi WNW 11.5 mph 23.0 mph N/A   Clear
2:56 PM 17.1 °F 3.6 °F 1.6 °F 51% 30.03 in 10.0 mi WNW 12.7 mph 18.4 mph N/A   Clear
3:16 PM 16.7 °F 2.0 °F -0.4 °F 47% 30.03 in 10.0 mi NW 15.0 mph 20.7 mph N/A   Scattered Clouds
3:36 PM 16.9 °F 1.7 °F -0.2 °F 47% 30.03 in 10.0 mi NW 16.1 mph 21.9 mph N/A   Clear
3:56 PM 16.5 °F 2.4 °F -0.4 °F 47% 30.03 in 10.0 mi WNW 13.8 mph 20.7 mph N/A   Clear
4:16 PM 16.9 °F 6.4 °F -0.8 °F 46% 30.03 in 10.0 mi NW 8.1 mph - N/A   Clear
4:36 PM 16.2 °F 3.9 °F 1.6 °F 53% 30.04 in 10.0 mi WNW 10.4 mph 18.4 mph N/A   Scattered Clouds
4:56 PM 16.5 °F 6.0 °F -1.7 °F 45% 30.05 in 10.0 mi WNW 8.1 mph 17.3 mph N/A   Clear
5:16 PM 16.3 °F 3.4 °F 1.8 °F 53% 30.05 in 10.0 mi NW 11.5 mph 23.0 mph N/A   Clear
5:36 PM 15.6 °F 4.0 °F 2.1 °F 55% 30.05 in 10.0 mi NW 9.2 mph 17.3 mph N/A   Clear
5:56 PM 15.3 °F 2.8 °F 2.3 °F 57% 30.06 in 10.0 mi NW 10.4 mph 19.6 mph N/A   Clear
6:16 PM 15.3 °F 3.5 °F 1.0 °F 53% 30.06 in 10.0 mi NW 9.2 mph 17.3 mph N/A   Clear
6:36 PM 14.9 °F 6.1 °F 0.9 °F 54% 30.07 in 10.0 mi NNW 5.8 mph - N/A   Clear
6:56 PM 14.5 °F 4.6 °F 0.5 °F 54% 30.08 in 10.0 mi NW 6.9 mph - N/A   Clear
7:16 PM 14.0 °F 3.9 °F 1.4 °F 57% 30.08 in 10.0 mi NW 6.9 mph - N/A   Clear
7:36 PM 13.1 °F 5.4 °F 1.4 °F 60% 30.09 in 10.0 mi NW 4.6 mph - N/A   Clear
7:56 PM 12.2 °F 2.9 °F 1.4 °F 62% 30.10 in 10.0 mi NW 5.8 mph - N/A   Clear
8:16 PM 11.5 °F 0.9 °F 0.5 °F 61% 30.11 in 10.0 mi NNW 6.9 mph - N/A   Clear
8:36 PM 11.3 °F 0.7 °F -0.4 °F 59% 30.12 in 10.0 mi NNW 6.9 mph - N/A   Clear
8:56 PM 10.4 °F 0.8 °F 0.5 °F 64% 30.13 in 10.0 mi NNW 5.8 mph - N/A   Clear
9:16 PM 9.9 °F -2.2 °F -0.2 °F 64% 30.13 in 10.0 mi NW 8.1 mph - N/A   Clear
9:36 PM 9.3 °F -0.5 °F -0.0 °F 66% 30.14 in 10.0 mi NNW 5.8 mph - N/A   Clear
9:56 PM 8.6 °F 0.1 °F -0.0 °F 68% 30.14 in 10.0 mi NNW 4.6 mph - N/A   Clear
10:16 PM 7.9 °F - -0.0 °F 70% 30.15 in 10.0 mi Calm Calm - N/A   Clear
10:36 PM 8.2 °F - -0.2 °F 68% 30.15 in 10.0 mi Calm Calm - N/A   Clear
10:56 PM 6.3 °F - -0.9 °F 72% 30.15 in 10.0 mi Calm Calm - N/A   Clear
11:15 PM 4.5 °F - -2.2 °F 74% 30.15 in 10.0 mi Calm Calm - N/A   Clear
11:36 PM 2.3 °F - -2.6 °F 80% 30.15 in 10.0 mi Calm Calm - N/A   Clear
11:56 PM 0.9 °F - -4.0 °F 80% 30.15 in 10.0 mi Calm Calm - N/A   Clear